Antwerp, Belgium

2:12 PM CEST on August 19, 2017 (GMT +0200)
Deurne

Weather History for EBAW - January, 2013

Change the Weather History Date:

Friday, January 18, 2013

  Actual Average Record
Temperature  
Mean Temperature 25 °F -  
Max Temperature 30 °F 43 °F 59 °F (2007)
Min Temperature 20 °F 34 °F 18 °F (2016)
Degree Days  
Heating Degree Days 40    
Moisture  
Dew Point 23 °F    
Average Humidity 83    
Maximum Humidity 93    
Minimum Humidity 71    
Precipitation  
Precipitation 0.00 in - - ()
Sea Level Pressure  
Sea Level Pressure 29.80 in    
Wind  
Wind Speed 5 mph ()    
Max Wind Speed 12 mph    
Max Gust Speed -    
Visibility 3.1 miles    
Events Snow    
Averages and records for this station are not official NWS values.
T = Trace of Precipitation, MM = Missing Value Source: Averaged Metar Reports

Daily Weather History Graph

Daily Weather History Graph

Search for Another Location

Airport or City:

Trip Planner

Search our weather history database for the weather conditions in past years. The results will help you decide how hot, cold, wet, or windy it might be!

Date:

Astronomy

Jan. 18, 2013 Rise Set
Actual Time 8:36 AM CET 5:08 PM CET
Civil Twilight 7:59 AM CET 5:46 PM CET
Nautical Twilight 7:17 AM CET 6:27 PM CET
Astronomical Twilight 6:38 AM CET 7:07 PM CET
Moon 11:12 AM CET (1/18) 12:35 AM CET (1/18)
Length of Visible Light 9h 47m
Length of Day
8h 31m
Waxing Crescent, 45% of the Moon is Illuminated
Jan 18
Waxing Crescent
Jan 19
First Quarter
Jan 27
Full
Feb 3
Last Quarter
Feb 10
New

Hourly Weather History & Observations

Time (CET) Temp. Windchill Dew Point Humidity Pressure Visibility Wind Dir Wind Speed Gust Speed Precip Events Conditions
12:20 AM 21.2 °F - 19.4 °F 93% 30.04 in 1.4 mi Variable 1.2 mph - N/A   Mostly Cloudy
12:50 AM 21.2 °F - 19.4 °F 93% 30.04 in 1.4 mi Variable 2.3 mph - N/A   Overcast
1:00 AM 22 °F - 19 °F 85% 30.05 in 1 mi East 2.2 mph - -   Mist
1:20 AM 23.0 °F 17.0 °F 19.4 °F 86% 30.04 in 1.4 mi East 4.6 mph - N/A   Overcast
1:50 AM 23.0 °F 18.4 °F 19.4 °F 86% 30.01 in 1.6 mi East 3.5 mph - N/A   Overcast
2:20 AM 23.0 °F 18.4 °F 19.4 °F 86% 30.01 in 1.3 mi East 3.5 mph - N/A   Overcast
2:50 AM 23.0 °F 18.4 °F 19.4 °F 86% 29.98 in 1.4 mi East 3.5 mph - N/A   Overcast
3:20 AM 23.0 °F 18.4 °F 21.2 °F 93% 29.98 in 1.4 mi ENE 3.5 mph - N/A   Overcast
3:50 AM 23.0 °F 18.4 °F 21.2 °F 93% 29.95 in 1.3 mi East 3.5 mph - N/A   Overcast
4:00 AM 23 °F - 20 °F 86% 29.97 in 1 mi East 4.5 mph - -   Mist
4:20 AM 23.0 °F 18.4 °F 21.2 °F 93% 29.95 in 1.7 mi East 3.5 mph - N/A Snow Light Snow Showers
4:50 AM 23.0 °F 18.4 °F 21.2 °F 93% 29.95 in 1.6 mi East 3.5 mph - N/A   Overcast
5:20 AM 23.0 °F 18.4 °F 21.2 °F 93% 29.95 in 1.7 mi ESE 3.5 mph - N/A   Overcast
5:50 AM 23.0 °F 18.4 °F 21.2 °F 93% 29.92 in 1.7 mi ESE 3.5 mph - N/A   Overcast
6:20 AM 23.0 °F - 21.2 °F 93% 29.92 in 1.7 mi Variable 2.3 mph - N/A   Overcast
6:50 AM 24.8 °F 20.5 °F 21.2 °F 86% 29.92 in 1.3 mi ESE 3.5 mph - N/A Snow Light Snow Grains
7:00 AM 24 °F - 21 °F 85% 29.94 in 1 mi ESE 2.2 mph - - Snow Snow Grains
7:20 AM 24.8 °F 20.5 °F 21.2 °F 86% 29.92 in 1.3 mi ESE 3.5 mph - N/A Snow Light Snow Grains
7:50 AM 24.8 °F 20.5 °F 21.2 °F 86% 29.92 in 1.2 mi ESE 3.5 mph - N/A Snow Light Snow
8:20 AM 24.8 °F 20.5 °F 21.2 °F 86% 29.89 in 1.2 mi East 3.5 mph - N/A Snow Light Snow
8:50 AM 24.8 °F 19.1 °F 21.2 °F 86% 29.89 in 1.2 mi East 4.6 mph - N/A Snow Light Snow
9:20 AM 24.8 °F 17.9 °F 23.0 °F 93% 29.86 in 1.2 mi East 5.8 mph - N/A Snow Light Snow
9:50 AM 24.8 °F 16.9 °F 23.0 °F 93% 29.86 in 1.2 mi ESE 6.9 mph - N/A Snow Light Snow
10:00 AM 26 °F - 23 °F 83% 29.88 in 1 mi ESE 6.7 mph - - Snow Light Snow
10:20 AM 26.6 °F 19.1 °F 23.0 °F 86% 29.86 in 1.4 mi ESE 6.9 mph - N/A Snow Light Snow
10:50 AM 26.6 °F 20.0 °F 23.0 °F 86% 29.83 in 1.5 mi ESE 5.8 mph - N/A Snow Light Snow
11:20 AM 26.6 °F 18.2 °F 24.8 °F 93% 29.83 in 1.7 mi ESE 8.1 mph - N/A Snow Light Snow
11:50 AM 28.4 °F 20.4 °F 24.8 °F 86% 29.80 in - ESE 8.1 mph - N/A   Scattered Clouds
12:20 PM 28.4 °F 21.2 °F 24.8 °F 86% 29.80 in 2.5 mi ESE 6.9 mph - N/A   Partly Cloudy
12:50 PM 30.2 °F 21.9 °F 24.8 °F 80% 29.77 in 2.8 mi ESE 9.2 mph - N/A   Mist
1:00 PM 29 °F - 25 °F 77% 29.79 in 3 mi ESE 8.9 mph - -   Mist
1:20 PM 30.2 °F 21.3 °F 24.8 °F 80% 29.74 in 3.1 mi ESE 10.4 mph - N/A   Haze
1:50 PM 30.2 °F 22.6 °F 24.8 °F 80% 29.74 in 3.1 mi ESE 8.1 mph - N/A   Mostly Cloudy
2:20 PM 30.2 °F 23.4 °F 24.8 °F 80% 29.74 in 3.7 mi ESE 6.9 mph - N/A   Scattered Clouds
2:50 PM 30.2 °F 22.6 °F 24.8 °F 80% 29.74 in 3.7 mi East 8.1 mph - N/A   Partly Cloudy
3:20 PM 30.2 °F 22.6 °F 24.8 °F 80% 29.71 in 3.1 mi East 8.1 mph - N/A   Mostly Cloudy
3:50 PM 30.2 °F 22.6 °F 24.8 °F 80% 29.71 in 3.7 mi East 8.1 mph - N/A   Mostly Cloudy
4:00 PM 31 °F - 25 °F 71% 29.72 in 4 mi East 8.9 mph - -   Mostly Cloudy
4:20 PM 30.2 °F 22.6 °F 24.8 °F 80% 29.68 in 4.3 mi East 8.1 mph - N/A   Mostly Cloudy
4:50 PM 30.2 °F 21.3 °F 23.0 °F 75% 29.68 in 5.0 mi East 10.4 mph - N/A   Mostly Cloudy
5:20 PM 30.2 °F 21.9 °F 23.0 °F 75% 29.65 in 5.0 mi East 9.2 mph - N/A   Scattered Clouds
5:50 PM 28.4 °F 19.1 °F 23.0 °F 80% 29.65 in 5.0 mi East 10.4 mph - N/A   Unknown
6:20 PM 28.4 °F 18.5 °F 23.0 °F 80% 29.65 in 5.6 mi East 11.5 mph - N/A   Unknown
6:50 PM 28.4 °F 18.5 °F 23.0 °F 80% 29.62 in 5.0 mi East 11.5 mph - N/A   Unknown
7:00 PM 29 °F - 23 °F 71% 29.64 in 5 mi East 11.2 mph - -   Partly Cloudy
7:20 PM 28.4 °F 19.7 °F 23.0 °F 80% 29.62 in - East 9.2 mph - N/A   Clear
7:50 PM 28.4 °F 19.7 °F 23.0 °F 80% 29.62 in 6.2 mi East 9.2 mph - N/A   Mostly Cloudy
8:20 PM 28.4 °F 19.7 °F 23.0 °F 80% 29.62 in 6.2 mi East 9.2 mph - N/A   Mostly Cloudy
8:50 PM 28.4 °F 19.1 °F 23.0 °F 80% 29.59 in 6.2 mi East 10.4 mph - N/A   Mostly Cloudy
9:20 PM 30.2 °F 21.9 °F 23.0 °F 75% 29.59 in 6.2 mi East 9.2 mph - N/A   Mostly Cloudy
9:50 PM 30.2 °F 21.3 °F 23.0 °F 75% 29.59 in 6.2 mi East 10.4 mph - N/A   Mostly Cloudy
10:00 PM 29 °F - 23 °F 71% 29.60 in 6 mi East 11.2 mph - -   Overcast
10:20 PM 30.2 °F 21.3 °F 23.0 °F 75% 29.56 in 6.2 mi East 10.4 mph - N/A   Mostly Cloudy
10:50 PM 30.2 °F 21.9 °F 23.0 °F 75% 29.56 in 6.2 mi East 9.2 mph - N/A   Mostly Cloudy
11:20 PM 30.2 °F 21.9 °F 24.8 °F 80% 29.56 in 6.2 mi East 9.2 mph - N/A   Overcast
11:50 PM 30.2 °F 21.3 °F 23.0 °F 75% 29.56 in 6.2 mi East 10.4 mph - N/A   Overcast